DW3800 Weather Reports


time (UTC)temp
F
wind
direction
speed
knots
gust
knots
rain 1hr
in
rain 24hr
in
rain mn
in
humidity
%
barometer
mb
20260901131556 70 196 0.0 1.7 0.00 0.00 0.00 88 1018.0
20260901131051 69 233 2.6 2.6 0.00 0.00 0.00 90 1017.9
20260901130546 68 245 0.9 0.9 0.00 0.00 0.00 93 1017.8
20260901130044 68 198 0.0 0.0 0.00 0.00 0.00 94 1017.7
20260901125543 67 205 0.0 0.0 0.00 0.00 0.00 95 1017.9
20260901125039 67 218 0.0 0.0 0.00 0.00 0.00 95 1017.9
20260901124538 67 211 0.0 0.9 0.00 0.00 0.00 96 1017.9
20260901124033 67 204 0.0 0.0 0.00 0.00 0.00 96 1017.7
20260901123528 66 219 0.9 0.9 0.00 0.00 0.00 96 1017.8
20260901123028 66 188 0.0 0.9 0.00 0.00 0.00 97 1017.7
20260901122526 66 194 0.0 1.7 0.00 0.00 0.00 97 1017.6
20260901122025 66 197 0.0 0.9 0.00 0.00 0.00 97 1017.6
20260901121520 65 248 0.0 0.0 0.00 0.00 0.00 97 1017.7
20260901121016 66 204 0.0 0.9 0.00 0.00 0.00 97 1017.5
20260901120515 66 221 0.0 0.0 0.00 0.00 0.00 97 1017.6
20260901120011 65 194 0.0 0.0 0.00 0.00 0.00 97 1017.4
20260901115506 66 214 0.9 0.9 0.00 0.00 0.00 97 1017.5
20260901115003 65 230 0.0 0.9 0.00 0.00 0.00 97 1017.4
20260901114459 65 244 0.9 0.9 0.00 0.00 0.00 97 1017.3
20260901113956 65 226 0.0 0.0 0.00 0.00 0.00 97 1017.3
20260901113456 65 214 0.0 0.0 0.00 0.00 0.00 96 1017.1
20260901112951 65 213 0.0 0.0 0.00 0.00 0.00 96 1016.9
20260901112446 65 264 0.0 0.9 0.00 0.00 0.00 96 1016.9
20260901111941 65 192 0.0 0.0 0.00 0.00 0.00 96 1016.9
20260901111440 66 170 0.9 0.9 0.00 0.00 0.00 96 1017.0
20260901110938 66 212 0.0 0.0 0.00 0.00 0.00 96 1016.6
20260901110434 66 206 0.0 0.0 0.00 0.00 0.00 97 1016.8
20260901105931 65 208 0.0 0.0 0.00 0.00 0.00 97 1016.6
20260901105426 65 197 0.0 0.0 0.00 0.00 0.00 97 1016.4
20260901104921 65 196 0.0 0.0 0.00 0.00 0.00 97 1016.6
20260901104416 65 212 0.0 0.0 0.00 0.00 0.00 96 1016.5
20260901103912 65 219 0.0 0.0 0.00 0.00 0.00 96 1016.4
20260901103412 66 227 0.0 0.0 0.00 0.00 0.00 96 1016.4
20260901102907 66 236 0.0 0.0 0.00 0.00 0.00 96 1016.4
20260901102401 66 250 0.0 0.0 0.00 0.00 0.00 96 1016.5
20260901101857 66 210 0.0 0.0 0.00 0.00 0.00 96 1016.7
20260901101357 66 222 0.0 0.0 0.00 0.00 0.00 97 1016.6
20260901100856 66 223 0.0 0.0 0.00 0.00 0.00 97 1016.7
20260901100351 66 221 0.0 0.0 0.00 0.00 0.00 97 1016.7
20260901095845 66 215 0.0 0.0 0.00 0.00 0.00 97 1016.5
20260901095342 66 188 0.0 0.0 0.00 0.00 0.00 97 1016.5
20260901094836 66 206 0.0 0.0 0.00 0.00 0.00 97 1016.4
20260901094331 66 231 0.0 0.0 0.00 0.00 0.00 97 1016.6
20260901093826 66 238 0.0 0.0 0.00 0.00 0.00 97 1016.5
20260901093325 65 252 0.0 0.0 0.00 0.00 0.00 97 1016.6
20260901092821 65 254 0.0 0.0 0.00 0.00 0.00 96 1016.4
20260901092317 65 279 0.0 0.0 0.00 0.00 0.00 96 1016.2
20260901091813 66 247 0.0 0.0 0.00 0.00 0.00 96 1016.5
20260901091312 66 248 0.0 0.0 0.00 0.00 0.00 96 1016.2
20260901090808 66 235 0.0 0.0 0.00 0.00 0.00 96 1016.3
20260901090303 66 234 0.0 0.0 0.00 0.00 0.00 95 1016.6
20260901085759 66 246 0.0 0.0 0.00 0.00 0.00 95 1016.5
20260901085253 66 247 0.0 0.0 0.00 0.00 0.00 95 1016.5
20260901084750 66 247 0.0 0.0 0.00 0.00 0.00 95 1016.2
20260901084246 66 247 0.0 0.0 0.00 0.00 0.00 94 1016.4
20260901083746 66 247 0.0 0.0 0.00 0.00 0.00 94 1016.7
20260901083245 66 248 0.0 0.0 0.00 0.00 0.00 94 1016.4
20260901082744 67 254 0.0 0.0 0.00 0.00 0.00 94 1016.5
20260901082239 66 248 0.0 0.0 0.00 0.00 0.00 94 1016.4
20260901081735 67 245 0.0 0.0 0.00 0.00 0.00 94 1016.5
20260901081234 67 245 0.0 0.0 0.00 0.00 0.00 93 1016.4
20260901080730 67 246 0.0 0.0 0.00 0.00 0.00 93 1016.2
20260901080228 67 288 0.0 0.0 0.00 0.00 0.00 93 1016.5
20260901075723 67 242 0.0 0.0 0.00 0.00 0.00 93 1016.7
20260901075218 67 219 0.0 0.0 0.00 0.00 0.00 93 1016.6
20260901074712 67 228 0.0 0.0 0.00 0.00 0.00 92 1016.6
20260901074208 67 225 0.0 0.0 0.00 0.00 0.00 92 1016.5
20260901073704 68 228 0.0 0.0 0.00 0.00 0.00 92 1016.7
20260901073159 68 235 0.0 0.0 0.00 0.00 0.00 92 1016.8
20260901072654 68 239 0.0 0.0 0.00 0.00 0.00 92 1016.8
20260901072149 68 210 0.0 0.0 0.00 0.00 0.00 91 1016.8
20260901071648 67 208 0.0 0.0 0.00 0.00 0.00 91 1016.8
20260901071143 68 208 0.0 0.0 0.00 0.00 0.00 91 1016.7
20260901070637 68 215 0.0 0.0 0.00 0.00 0.00 91 1016.7
20260901070133 68 246 0.0 0.0 0.00 0.00 0.00 90 1016.7
20260901065632 68 248 0.0 0.0 0.00 0.00 0.00 91 1016.7
20260901065127 68 219 0.0 0.0 0.00 0.00 0.00 90 1016.8
20260901064624 68 219 0.0 0.0 0.00 0.00 0.00 90 1017.0
20260901064120 68 218 0.0 0.0 0.00 0.00 0.00 90 1016.9
20260901063616 68 218 0.0 0.0 0.00 0.00 0.00 89 1017.1
20260901063112 69 219 0.0 0.0 0.00 0.00 0.00 89 1017.1
20260901062608 69 203 0.0 0.0 0.00 0.00 0.00 88 1017.1
20260901062103 69 209 0.0 0.0 0.00 0.00 0.00 87 1017.2
20260901061600 69 209 0.0 0.0 0.00 0.00 0.00 86 1017.0
20260901061054 70 210 0.0 0.0 0.00 0.00 0.00 85 1017.0
20260901060549 71 217 0.0 0.0 0.00 0.00 0.00 84 1016.8
20260901060044 71 202 0.0 0.0 0.00 0.00 0.00 84 1016.9
20260901055539 71 195 0.0 0.0 0.00 0.00 0.00 84 1017.0
20260901055036 71 211 0.0 0.0 0.00 0.00 0.00 83 1016.7
20260901054533 71 202 0.0 0.0 0.00 0.00 0.00 83 1016.8
20260901054029 72 208 0.0 0.0 0.00 0.00 0.00 81 1016.7
20260901053525 72 219 0.9 0.9 0.00 0.00 0.00 81 1016.8
20260901053020 73 200 0.0 0.9 0.00 0.00 0.00 80 1016.4
20260901052520 73 218 0.9 1.7 0.00 0.00 0.00 80 1016.6
20260901052020 73 222 0.0 1.7 0.00 0.00 0.00 80 1016.5
20260901051515 73 223 0.0 0.9 0.00 0.00 0.00 80 1016.3
20260901051014 73 201 0.0 0.9 0.00 0.00 0.00 80 1016.3
20260901050509 73 208 0.0 0.9 0.00 0.00 0.00 80 1016.3
20260901050004 72 227 0.0 1.7 0.00 0.00 0.00 81 1016.1
20260901045459 71 267 0.0 0.0 0.00 0.00 0.00 83 1016.1
20260901044954 71 278 0.0 0.0 0.00 0.00 0.00 83 1016.2
20260901044450 70 273 0.0 0.0 0.00 0.00 0.00 84 1016.2
20260901043946 71 273 0.0 0.0 0.00 0.00 0.00 83 1016.0
20260901043442 70 299 0.9 0.9 0.00 0.00 0.00 84 1016.1
20260901042941 70 148 0.0 0.0 0.00 0.00 0.00 84 1016.1
20260901042436 70 207 0.0 0.0 0.00 0.00 0.00 83 1016.0
20260901041931 71 207 0.0 0.0 0.00 0.00 0.00 82 1016.1
20260901041426 71 208 0.0 0.0 0.00 0.00 0.00 82 1016.0
20260901040925 71 209 0.0 0.0 0.00 0.00 0.00 81 1016.1
20260901040420 71 201 0.0 0.0 0.00 0.00 0.00 80 1016.3
20260901035914 72 180 0.0 0.0 0.00 0.00 0.00 78 1016.1
20260901035413 72 180 0.0 0.0 0.00 0.00 0.00 78 1016.3
20260901034911 73 207 0.0 0.0 0.00 0.00 0.00 76 1016.2
20260901034406 73 218 0.0 0.0 0.00 0.00 0.00 75 1016.3
20260901033901 73 229 0.0 0.0 0.00 0.00 0.00 75 1016.5
20260901033401 72 225 0.0 0.0 0.00 0.00 0.00 75 1016.3
20260901032859 72 213 0.0 0.0 0.00 0.00 0.00 76 1016.2
20260901032358 72 226 0.0 0.0 0.00 0.00 0.00 75 1016.2
20260901031854 72 226 0.0 0.0 0.00 0.00 0.00 74 1016.2
20260901031350 73 226 0.0 0.0 0.00 0.00 0.00 73 1016.2
20260901030849 73 226 0.0 0.0 0.00 0.00 0.00 72 1016.0
20260901030345 74 226 0.0 0.0 0.00 0.00 0.00 72 1016.1
20260901025843 74 228 0.0 0.0 0.00 0.00 0.00 70 1016.2
20260901025338 75 243 0.0 0.0 0.00 0.00 0.00 69 1015.9
20260901024833 75 244 0.0 0.0 0.00 0.00 0.00 69 1015.9
20260901024332 75 229 0.0 0.0 0.00 0.00 0.00 69 1016.1
20260901023830 76 229 0.0 0.0 0.00 0.00 0.00 67 1015.8
20260901023326 77 244 0.0 0.0 0.00 0.00 0.00 65 1015.7
20260901022821 77 214 0.0 0.0 0.00 0.00 0.00 64 1015.7
20260901022317 76 212 0.0 1.7 0.00 0.00 0.00 64 1015.8
20260901021812 76 217 0.0 0.0 0.00 0.00 0.00 65 1015.9
20260901021308 76 202 0.0 0.0 0.00 0.00 0.00 65 1015.6
20260901020802 77 207 0.0 0.0 0.00 0.00 0.00 65 1015.7
20260901020257 77 190 0.0 0.0 0.00 0.00 0.00 65 1015.7
20260901015752 77 213 0.0 1.7 0.00 0.00 0.00 63 1015.7
20260901015248 78 207 0.0 0.0 0.00 0.00 0.00 63 1015.7
20260901014747 78 209 0.0 0.0 0.00 0.00 0.00 63 1015.5
20260901014243 77 239 0.9 0.9 0.00 0.00 0.00 64 1015.6
20260901013739 78 245 0.0 0.0 0.00 0.00 0.00 65 1015.2
20260901013234 78 289 0.0 0.0 0.00 0.00 0.00 64 1015.4
20260901012730 79 294 0.0 0.0 0.00 0.00 0.00 64 1015.1
20260901012229 79 267 0.0 0.0 0.00 0.00 0.00 62 1015.2
20260901011726 79 300 0.0 0.0 0.00 0.00 0.00 62 1014.9
20260901011220 79 278 0.0 0.0 0.00 0.00 0.00 62 1015.0
20260901010714 79 274 0.0 0.0 0.00 0.00 0.00 60 1015.1
20260901010209 80 243 0.0 0.0 0.00 0.00 0.00 58 1015.4
20260901005708 80 243 0.0 0.0 0.00 0.00 0.00 57 1015.0
20260901005204 80 254 0.0 0.0 0.00 0.00 0.00 58 1015.0
20260901004703 80 231 0.0 0.0 0.00 0.00 0.00 57 1014.9
20260901004157 80 231 0.0 0.0 0.00 0.00 0.00 57 1014.9
20260901003652 81 231 0.0 0.0 0.00 0.00 0.00 59 1015.1
20260901003151 81 219 0.0 0.0 0.00 0.00 0.00 58 1015.0
20260901002645 82 215 0.0 0.0 0.00 0.00 0.00 59 1015.0
20260901002140 83 216 0.0 0.0 0.00 0.00 0.00 58 1015.1
20260901001636 84 212 0.0 0.0 0.00 0.00 0.00 55 1014.9
20260901001131 85 213 0.0 0.0 0.00 0.00 0.00 55 1014.8
20260901000626 85 213 0.0 0.0 0.00 0.00 0.00 57 1014.9
20260901000121 85 222 0.0 0.0 0.00 0.00 0.00 56 1014.7
20260831235615 85 204 0.0 0.0 0.00 0.00 0.00 55 1014.8
20260831235111 86 230 0.0 0.0 0.00 0.00 0.00 55 1014.9
20260831234610 86 229 0.0 0.0 0.00 0.00 0.00 53 1014.7
20260831234106 86 230 0.0 0.0 0.00 0.00 0.00 53 1014.8
20260831233601 87 7 0.9 0.9 0.00 0.00 0.00 50 1014.6
20260831233056 87 205 0.0 0.9 0.00 0.00 0.00 49 1014.6
20260831232551 88 239 0.9 0.9 0.00 0.00 0.00 48 1014.6
20260831232047 88 186 0.0 1.7 0.00 0.00 0.00 47 1014.6
20260831231543 89 15 1.7 1.7 0.00 0.00 0.00 44 1014.6
20260831231039 89 320 0.9 0.9 0.00 0.00 0.00 43 1014.7
20260831230534 89 201 0.9 0.9 0.00 0.00 0.00 43 1014.7
20260831230034 89 232 0.9 1.7 0.00 0.00 0.00 44 1014.6
20260831225529 89 237 0.9 5.2 0.00 0.00 0.00 43 1014.6
20260831225024 89 194 0.9 1.7 0.00 0.00 0.00 43 1014.6
20260831224519 89 210 0.0 1.7 0.00 0.00 0.00 45 1014.6
20260831224014 88 212 0.0 1.7 0.00 0.00 0.00 47 1014.3
20260831223509 88 244 0.0 1.7 0.00 0.00 0.00 48 1014.5
20260831223006 88 233 0.9 0.9 0.00 0.00 0.00 49 1014.5
20260831222502 89 219 0.0 0.9 0.00 0.00 0.00 47 1014.5
20260831222001 89 249 0.9 1.7 0.00 0.00 0.00 45 1014.3
20260831221457 89 215 0.0 0.0 0.00 0.00 0.00 47 1014.2
20260831220952 90 354 1.7 2.6 0.00 0.00 0.00 43 1014.1
20260831220447 90 199 0.9 0.9 0.00 0.00 0.00 43 1014.5
20260831215942 90 219 0.9 2.6 0.00 0.00 0.00 42 1014.3
20260831215438 91 211 0.0 1.7 0.00 0.00 0.00 45 1014.3
20260831214934 90 214 0.9 0.9 0.00 0.00 0.00 46 1014.2
20260831214431 91 212 0.9 4.3 0.00 0.00 0.00 45 1014.2
20260831213927 91 207 0.9 2.6 0.00 0.00 0.00 48 1014.1
20260831213423 91 245 0.9 1.7 0.00 0.00 0.00 48 1014.1
20260831212923 91 237 0.9 1.7 0.00 0.00 0.00 48 1014.1
20260831212420 91 193 0.0 0.9 0.00 0.00 0.00 49 1014.0
20260831211919 90 255 3.5 4.3 0.00 0.00 0.00 50 1014.0
20260831211414 90 348 2.6 5.2 0.00 0.00 0.00 50 1013.8
20260831210908 91 274 1.7 2.6 0.00 0.00 0.00 49 1014.1
20260831210403 90 198 0.9 5.2 0.00 0.00 0.00 51 1014.1
20260831205859 91 130 1.7 4.3 0.00 0.00 0.00 50 1013.9
20260831205354 91 200 2.6 2.6 0.00 0.00 0.00 52 1014.2
20260831204849 90 186 0.9 1.7 0.00 0.00 0.00 51 1014.1
20260831204348 91 196 2.6 2.6 0.00 0.00 0.00 48 1014.2
20260831203848 91 157 0.9 4.3 0.00 0.00 0.00 50 1014.1
20260831203343 91 350 0.9 1.7 0.00 0.00 0.00 50 1014.2
20260831202841 91 60 1.7 2.6 0.00 0.00 0.00 50 1014.0
20260831202336 91 198 0.9 2.6 0.00 0.00 0.00 49 1014.2
20260831201836 90 202 0.9 4.3 0.00 0.00 0.00 50 1014.0
20260831201335 91 270 1.7 6.1 0.00 0.00 0.00 51 1014.2
20260831200831 90 193 0.9 4.3 0.00 0.00 0.00 53 1014.2
20260831200325 90 334 1.7 6.1 0.00 0.00 0.00 54 1014.1
20260831195821 91 304 1.7 2.6 0.00 0.00 0.00 53 1014.1
20260831195317 90 220 0.9 2.6 0.00 0.00 0.00 53 1013.8
20260831194812 90 330 1.7 5.2 0.00 0.00 0.00 56 1013.8
20260831194307 91 227 0.9 2.6 0.00 0.00 0.00 55 1013.6
20260831193806 91 184 0.0 1.7 0.00 0.00 0.00 56 1013.9
20260831193301 91 172 0.9 4.3 0.00 0.00 0.00 57 1013.8
20260831192756 89 296 1.7 2.6 0.00 0.00 0.00 57 1014.1
20260831192251 88 44 0.9 6.1 0.00 0.00 0.00 58 1014.0
20260831191747 89 90 1.7 4.3 0.00 0.00 0.00 59 1014.0
20260831191244 89 118 1.7 1.7 0.00 0.00 0.00 56 1013.9
20260831190739 89 181 0.0 0.9 0.00 0.00 0.00 60 1013.8
20260831190238 88 255 1.7 5.2 0.00 0.00 0.00 60 1013.7
20260831185733 87 146 0.0 2.6 0.00 0.00 0.00 63 1013.8
20260831185229 87 324 2.6 2.6 0.00 0.00 0.00 64 1013.8
20260831184728 87 138 1.7 6.1 0.00 0.00 0.00 64 1013.7
20260831184224 88 257 2.6 2.6 0.00 0.00 0.00 59 1013.7
20260831183723 87 82 2.6 4.3 0.00 0.00 0.00 60 1013.8
20260831183218 88 196 1.7 1.7 0.00 0.00 0.00 59 1013.9
20260831182717 88 239 0.9 5.2 0.00 0.00 0.00 56 1013.9
20260831182213 88 240 0.9 7.0 0.00 0.00 0.00 62 1014.0
20260831181712 88 180 0.9 4.3 0.00 0.00 0.00 57 1013.8
20260831181208 89 164 0.0 0.9 0.00 0.00 0.00 69 1014.0
20260831180702 87 200 1.7 1.7 0.00 0.00 0.00 67 1014.0
20260831180152 87 175 1.7 2.6 0.00 0.00 0.00 72 1013.9
20260831175651 87 185 0.9 1.7 0.00 0.00 0.00 72 1013.8
20260831175148 87 194 0.9 5.2 0.00 0.00 0.00 72 1013.8
20260831174643 86 160 0.9 1.7 0.00 0.00 0.00 74 1014.0
20260831174138 86 123 0.9 2.6 0.00 0.00 0.00 74 1014.2
20260831173636 85 334 0.9 4.3 0.00 0.00 0.00 75 1014.1
20260831173133 85 355 2.6 4.3 0.00 0.00 0.00 75 1014.1
20260831172632 85 345 3.5 4.3 0.00 0.00 0.00 75 1014.2
20260831172132 85 207 1.7 2.6 0.00 0.00 0.00 76 1014.4
20260831171627 84 163 0.9 2.6 0.00 0.00 0.00 77 1014.1
20260831171125 85 70 2.6 4.3 0.00 0.00 0.00 77 1014.1
20260831170621 84 164 0.9 0.9 0.00 0.00 0.00 80 1014.2
20260831170118 84 262 0.9 4.3 0.00 0.00 0.00 78 1014.1
20260831165613 84 171 0.9 1.7 0.00 0.00 0.00 79 1014.1
20260831165110 84 249 1.7 1.7 0.00 0.00 0.00 78 1014.1
20260831164605 84 175 0.9 4.3 0.00 0.00 0.00 79 1013.9
20260831164101 84 210 1.7 1.7 0.00 0.00 0.00 80 1013.8
20260831163555 84 162 0.9 0.9 0.00 0.00 0.00 79 1013.9
20260831163051 83 236 0.9 1.7 0.00 0.00 0.00 79 1014.0
20260831162550 83 155 1.7 2.6 0.00 0.00 0.00 79 1014.1
20260831162048 83 208 0.9 4.3 0.00 0.00 0.00 81 1013.9
20260831161544 82 241 2.6 4.3 0.00 0.00 0.00 82 1013.9
20260831161041 82 172 1.7 4.3 0.00 0.00 0.00 83 1013.9
20260831160539 82 230 0.9 1.7 0.00 0.00 0.00 82 1013.8
20260831160036 82 261 1.7 1.7 0.00 0.00 0.00 83 1013.8
20260831155530 82 227 1.7 1.7 0.00 0.00 0.00 83 1014.0
20260831155025 82 212 1.7 5.2 0.00 0.00 0.00 83 1014.1
20260831154521 82 247 0.9 1.7 0.00 0.00 0.00 83 1013.9
20260831154020 81 237 0.9 2.6 0.00 0.00 0.00 84 1014.0
20260831153515 81 102 1.7 2.6 0.00 0.00 0.00 83 1013.6
20260831153012 82 200 3.5 5.2 0.00 0.00 0.00 83 1013.7
20260831152507 81 232 0.9 0.9 0.00 0.00 0.00 84 1013.5
20260831152002 80 166 0.9 4.3 0.00 0.00 0.00 85 1013.5
20260831151501 80 107 0.0 1.7 0.00 0.00 0.00 86 1013.6
20260831150956 80 222 1.7 2.6 0.00 0.00 0.00 86 1013.2
20260831150452 79 125 0.0 0.9 0.00 0.00 0.00 86 1013.4
20260831145951 79 231 0.9 4.3 0.00 0.00 0.00 87 1013.1
20260831145447 79 143 0.9 4.3 0.00 0.00 0.00 88 1013.2
20260831144943 78 167 0.0 1.7 0.00 0.00 0.00 88 1013.2
20260831144438 78 151 1.7 1.7 0.00 0.00 0.00 88 1013.1
20260831143933 78 179 2.6 4.3 0.00 0.00 0.00 88 1013.0
20260831143428 78 194 1.7 2.6 0.00 0.00 0.00 88 1013.0
20260831142924 77 169 4.3 4.3 0.00 0.00 0.00 89 1012.7
20260831142420 77 259 3.5 5.2 0.00 0.00 0.00 89 1013.1
20260831141914 78 219 2.6 2.6 0.00 0.00 0.00 89 1012.8
20260831141408 77 192 0.9 1.7 0.00 0.00 0.00 89 1012.8
20260831140903 76 228 0.9 2.6 0.00 0.00 0.00 90 1012.5
20260831140358 76 252 2.6 2.6 0.00 0.00 0.00 91 1012.7
20260831135857 76 268 1.7 2.6 0.00 0.00 0.00 91 1012.6
20260831135356 76 133 0.9 0.9 0.00 0.00 0.00 92 1012.5
20260831134852 75 169 1.7 2.6 0.00 0.00 0.00 92 1012.5
20260831134348 75 138 0.9 2.6 0.00 0.00 0.00 92 1012.4
20260831133847 75 221 2.6 4.3 0.00 0.00 0.00 93 1012.4
20260831133342 74 144 2.6 4.3 0.00 0.00 0.00 94 1012.4
20260831132837 74 226 1.7 2.6 0.00 0.00 0.00 95 1012.3
20260831132332 73 192 0.0 1.7 0.00 0.00 0.00 96 1012.3